When you browse on this site, cookies collect data to enhance your experience and personalize the content and advertising you see.
Visit our Privacy Policy to learn more. By continuing to use the site, you agree to this use of cookies and data.
  • în România
  • Lista ţărilor
  • Pe 7 zile
  • Temperatura apei
  • Meteo pe hartă
  • Widget-uri
  • user-avatar
    Intrare

    Meteo pe oră la Nzérékoré

    Astăzi, 21 August, Miercuri

    Timp Temperatura Precipitaţii Vânt Presiune Umiditate
    00:00 +25°C° 0 mm 2 m/s 746 mmHg 94%
    01:00 +25°C° 0 mm 2 m/s 746 mmHg 95%
    02:00 +25°C° 0.1 mm 2 m/s 746 mmHg 95%
    03:00 +25°C° 0.1 mm 1 m/s 746 mmHg 96%
    04:00 +24°C° 0.1 mm 1 m/s 745 mmHg 96%
    05:00 +25°C° 0.9 mm 1 m/s 746 mmHg 96%
    06:00 +25°C° 0.9 mm 1 m/s 746 mmHg 95%
    07:00 +25°C° 0.9 mm 1 m/s 747 mmHg 95%
    08:00 +26°C° 1.6 mm 1 m/s 747 mmHg 93%
    09:00 +26°C° 1.6 mm 2 m/s 747 mmHg 91%
    10:00 +27°C° 1.6 mm 2 m/s 747 mmHg 89%
    11:00 +27°C° 0.4 mm 2 m/s 747 mmHg 90%
    12:00 +26°C° 0.4 mm 2 m/s 746 mmHg 91%
    13:00 +26°C° 0.4 mm 1 m/s 746 mmHg 92%
    14:00 +26°C° 0 mm 1 m/s 745 mmHg 92%
    15:00 +26°C° 0 mm 1 m/s 744 mmHg 92%
    16:00 +26°C° 0 mm 1 m/s 744 mmHg 92%
    17:00 +26°C° 0 mm 1 m/s 744 mmHg 92%
    18:00 +25°C° 0 mm 1 m/s 744 mmHg 92%
    19:00 +25°C° 0 mm 1 m/s 745 mmHg 92%
    20:00 +25°C° 0 mm 1 m/s 745 mmHg 92%
    21:00 +25°C° 0 mm 1 m/s 745 mmHg 92%
    22:00 +25°C° 0 mm 1 m/s 746 mmHg 92%
    23:00 +25°C° 0 mm 1 m/s 746 mmHg 92%

    Mâine, 22 August, Joi

    Timp Temperatura Precipitaţii Vânt Presiune Umiditate
    00:00 +24°C° 0 mm 1 m/s 745 mmHg 93%
    01:00 +24°C° 0 mm 1 m/s 745 mmHg 94%
    02:00 +24°C° 0 mm 1 m/s 745 mmHg 95%
    03:00 +24°C° 0 mm 1 m/s 745 mmHg 96%
    04:00 +24°C° 0 mm 1 m/s 744 mmHg 96%
    05:00 +24°C° 0 mm 1 m/s 745 mmHg 96%
    06:00 +24°C° 0 mm 1 m/s 745 mmHg 96%
    07:00 +24°C° 0 mm 1 m/s 746 mmHg 96%
    08:00 +25°C° 0.2 mm 2 m/s 746 mmHg 91%
    09:00 +27°C° 0.2 mm 2 m/s 746 mmHg 87%
    10:00 +28°C° 0.2 mm 2 m/s 746 mmHg 82%
    11:00 +29°C° 0.9 mm 2 m/s 745 mmHg 80%
    12:00 +30°C° 0.9 mm 2 m/s 745 mmHg 77%
    13:00 +30°C° 0.9 mm 2 m/s 744 mmHg 75%
    14:00 +30°C° 1.3 mm 2 m/s 744 mmHg 76%
    15:00 +30°C° 1.3 mm 3 m/s 743 mmHg 77%
    16:00 +30°C° 1.3 mm 3 m/s 742 mmHg 78%
    17:00 +29°C° 1.4 mm 3 m/s 743 mmHg 82%
    18:00 +28°C° 1.4 mm 2 m/s 744 mmHg 86%
    19:00 +26°C° 1.4 mm 2 m/s 744 mmHg 90%
    20:00 +26°C° 1 mm 3 m/s 745 mmHg 90%
    21:00 +26°C° 1 mm 3 m/s 745 mmHg 91%
    22:00 +25°C° 1 mm 4 m/s 746 mmHg 91%
    23:00 +25°C° 0.6 mm 4 m/s 746 mmHg 93%

    Poimâine, 23 August, Vineri

    Timp Temperatura Precipitaţii Vânt Presiune Umiditate
    00:00 +25°C° 0.6 mm 3 m/s 746 mmHg 94%
    01:00 +24°C° 0.6 mm 3 m/s 746 mmHg 96%
    02:00 +24°C° 0.3 mm 3 m/s 746 mmHg 96%
    03:00 +24°C° 0.3 mm 3 m/s 746 mmHg 96%
    04:00 +24°C° 0.3 mm 3 m/s 745 mmHg 96%
    05:00 +24°C° 0.7 mm 3 m/s 746 mmHg 96%
    06:00 +24°C° 0.7 mm 3 m/s 746 mmHg 96%
    07:00 +24°C° 0.7 mm 2 m/s 747 mmHg 97%
    08:00 +24°C° 0.9 mm 3 m/s 747 mmHg 96%
    09:00 +24°C° 0.9 mm 3 m/s 748 mmHg 96%
    10:00 +24°C° 0.9 mm 3 m/s 748 mmHg 96%
    11:00 +24°C° 0.3 mm 3 m/s 747 mmHg 95%
    12:00 +24°C° 0.3 mm 3 m/s 747 mmHg 95%
    13:00 +24°C° 0.3 mm 3 m/s 747 mmHg 95%
    14:00 +24°C° 0.1 mm 3 m/s 746 mmHg 94%
    15:00 +25°C° 0.1 mm 3 m/s 745 mmHg 93%
    16:00 +25°C° 0.1 mm 3 m/s 745 mmHg 93%
    17:00 +24°C° 0 mm 3 m/s 745 mmHg 93%
    18:00 +24°C° 0 mm 3 m/s 746 mmHg 94%
    19:00 +24°C° 0 mm 3 m/s 746 mmHg 94%
    20:00 +24°C° 0 mm 3 m/s 746 mmHg 94%
    21:00 +24°C° 0 mm 2 m/s 747 mmHg 94%
    22:00 +24°C° 0 mm 2 m/s 747 mmHg 94%
    23:00 +24°C° 0 mm 2 m/s 747 mmHg 95%

    24 August, Sâmbătă

    Timp Temperatura Precipitaţii Vânt Presiune Umiditate
    00:00 +23°C° 0 mm 2 m/s 747 mmHg 95%
    01:00 +23°C° 0 mm 2 m/s 747 mmHg 95%
    02:00 +23°C° 0 mm 2 m/s 747 mmHg 95%
    03:00 +23°C° 0 mm 2 m/s 747 mmHg 95%
    04:00 +23°C° 0 mm 2 m/s 746 mmHg 95%
    05:00 +23°C° 0.1 mm 2 m/s 747 mmHg 95%
    06:00 +23°C° 0.1 mm 2 m/s 747 mmHg 96%
    07:00 +23°C° 0.1 mm 1 m/s 747 mmHg 96%
    08:00 +23°C° 0.3 mm 1 m/s 748 mmHg 95%
    09:00 +24°C° 0.3 mm 2 m/s 748 mmHg 94%
    10:00 +24°C° 0.3 mm 2 m/s 748 mmHg 93%
    11:00 +25°C° 0.4 mm 1 m/s 748 mmHg 92%
    12:00 +25°C° 0.4 mm 1 m/s 748 mmHg 91%
    13:00 +25°C° 0.4 mm 1 m/s 747 mmHg 90%
    14:00 +25°C° 1.3 mm 1 m/s 747 mmHg 91%
    15:00 +25°C° 1.3 mm 1 m/s 746 mmHg 93%
    16:00 +25°C° 1.3 mm 1 m/s 746 mmHg 95%
    17:00 +25°C° 2 mm 1 m/s 746 mmHg 95%
    18:00 +24°C° 2 mm 1 m/s 747 mmHg 95%
    19:00 +24°C° 2 mm 1 m/s 747 mmHg 95%
    20:00 +24°C° 3 mm 1 m/s 748 mmHg 96%
    21:00 +24°C° 3 mm 1 m/s 748 mmHg 97%
    22:00 +23°C° 3 mm 1 m/s 749 mmHg 98%
    23:00 +23°C° 0.3 mm 1 m/s 748 mmHg 98%

    25 August, Duminică

    Timp Temperatura Precipitaţii Vânt Presiune Umiditate
    00:00 +23°C° 0.3 mm 1 m/s 748 mmHg 98%
    01:00 +23°C° 0.3 mm 2 m/s 747 mmHg 98%
    02:00 +23°C° 0 mm 1 m/s 747 mmHg 98%
    03:00 +23°C° 0 mm 1 m/s 747 mmHg 98%
    04:00 +21°C° 0 mm 0 m/s 746 mmHg 98%
    05:00 +21°C° 0 mm 0 m/s 747 mmHg 97%
    06:00 +21°C° 0 mm 0 m/s 747 mmHg 97%
    07:00 +23°C° 0 mm 1 m/s 748 mmHg 96%
    08:00 +24°C° 0 mm 1 m/s 748 mmHg 92%
    09:00 +25°C° 0 mm 1 m/s 748 mmHg 87%
    10:00 +26°C° 0 mm 1 m/s 749 mmHg 83%
    11:00 +27°C° 0.1 mm 1 m/s 748 mmHg 80%
    12:00 +28°C° 0.1 mm 1 m/s 748 mmHg 77%
    13:00 +28°C° 0.1 mm 1 m/s 747 mmHg 74%
    14:00 +29°C° 0 mm 1 m/s 747 mmHg 73%
    15:00 +29°C° 0 mm 1 m/s 746 mmHg 71%
    16:00 +29°C° 0 mm 1 m/s 745 mmHg 70%
    17:00 +28°C° 0 mm 1 m/s 745 mmHg 74%
    18:00 +27°C° 0 mm 1 m/s 746 mmHg 78%
    19:00 +26°C° 0 mm 1 m/s 746 mmHg 82%
    20:00 +25°C° 0 mm 1 m/s 746 mmHg 83%
    21:00 +23°C° 0 mm 0 m/s 747 mmHg 84%
    22:00 +23°C° 0 mm 0 m/s 748 mmHg 85%
    23:00 +22°C° 0 mm 0 m/s 747 mmHg 86%

    26 August, Luni

    Timp Temperatura Precipitaţii Vânt Presiune Umiditate
    00:00 +22°C° 0 mm 0 m/s 747 mmHg 87%
    01:00 +22°C° 0 mm 0 m/s 747 mmHg 87%
    02:00 +22°C° 0 mm 0 m/s 746 mmHg 88%
    03:00 +21°C° 0 mm 0 m/s 746 mmHg 89%
    04:00 +23°C° 0 mm 1 m/s 746 mmHg 90%
    05:00 +23°C° 0 mm 1 m/s 746 mmHg 91%
    06:00 +23°C° 0 mm 1 m/s 747 mmHg 92%
    07:00 +23°C° 0 mm 1 m/s 747 mmHg 93%
    08:00 +25°C° 0 mm 1 m/s 747 mmHg 89%
    09:00 +26°C° 0 mm 1 m/s 748 mmHg 86%
    10:00 +27°C° 0 mm 2 m/s 748 mmHg 82%
    11:00 +28°C° 0.1 mm 2 m/s 747 mmHg 78%
    12:00 +29°C° 0.1 mm 1 m/s 747 mmHg 75%
    13:00 +30°C° 0.1 mm 1 m/s 746 mmHg 71%
    14:00 +30°C° 0.8 mm 1 m/s 746 mmHg 73%
    15:00 +30°C° 0.8 mm 1 m/s 745 mmHg 75%
    16:00 +29°C° 0.8 mm 2 m/s 744 mmHg 77%
    17:00 +28°C° 0.8 mm 1 m/s 744 mmHg 82%
    18:00 +27°C° 0.8 mm 1 m/s 745 mmHg 86%
    19:00 +26°C° 0.8 mm 1 m/s 745 mmHg 90%
    20:00 +25°C° 0.1 mm 1 m/s 745 mmHg 91%
    21:00 +25°C° 0.1 mm 1 m/s 746 mmHg 91%
    22:00 +25°C° 0.1 mm 1 m/s 746 mmHg 92%
    23:00 +25°C° 0.2 mm 1 m/s 746 mmHg 92%
    Arată mai mult